Location: Bęczków
(50.8761°N, 20.8028°E)
Time: 16:05:19
(UTC+02:00)

N. Korean satellite - Visible Passes

Search period start: 16 October 2019 00:00
Search period end: 26 October 2019 00:00
Orbit: 455 x 508 km, 97.2° (Epoch: 15 October)

Date Brightness Start Highest point End Pass type
(mag) Time Alt. Az. Time Alt. Az. Time Alt. Az.
16 Oct 10.4 05:23:27 10° ENE 05:24:31 11° E 05:25:35 10° ESE visible
17 Oct 10.1 18:44:46 10° SW 18:46:47 15° W 18:48:49 10° NW visible
18 Oct 8.8 06:04:27 10° NNE 06:07:40 30° E 06:10:55 10° SSE visible
18 Oct 9.1 18:18:19 10° SSW 18:21:17 27° W 18:24:17 10° NW visible
19 Oct 9.9 05:39:46 10° NE 05:42:12 17° E 05:44:39 10° SE visible
21 Oct 7.8 06:21:43 10° NNE 06:25:14 48° E 06:28:48 10° S visible
21 Oct 9.8 18:36:28 10° SW 18:38:53 18° W 18:41:20 10° NW visible
22 Oct 9.2 05:56:45 10° NE 05:59:50 26° E 06:02:56 10° SSE visible
22 Oct 8.6 18:10:16 10° SSW 18:13:24 33° W 18:16:36 10° NNW visible
23 Oct 10.1 05:32:14 10° NE 05:34:19 15° E 05:36:25 10° SE visible
24 Oct 6.8 06:39:06 10° NNE 06:42:44 78° E 06:46:26 10° S visible
24 Oct 10.3 18:55:13 10° WSW 18:56:31 12° W 18:57:50 10° WNW visible
25 Oct 8.2 06:13:55 10° NNE 06:17:23 40° E 06:20:52 10° S visible
25 Oct 9.5 18:28:14 10° SW 18:30:57 21° W 18:33:43 10° NW visible
